Weather Roundup
Issued by NWS Chicago, IL

Home | Current Version | Previous Version | Text Only | Print | Product List | Glossary On
Versions: 1 2 3 4 5 6 7 8 9 10 11 12 13 14 15 16 17 18 19 20 21 22 23 24 25 26 27 28 29 30 31 32 33 34 35 36 37 38 39 40 41 42 43 44 45 46 47 48 49 50
000
NZUS59 KLOT 281208
HRRLOT

CHICAGO AREA WEATHER ROUNDUP
NATIONAL WEATHER SERVICE CHICAGO/ROMEOVILLE IL
700 AM CDT THU JUL 28 2016

NOTE: "FAIR" INDICATES FEW OR NO CLOUDS BELOW 12,000 FEET WITH NO
SIGNIFICANT WEATHER AND/OR OBSTRUCTIONS TO VISIBILITY.

* THESE STATIONS ARE NOT UNDER NWS QUALITY CONTROL. THEY ALSO MAY NOT
  REPORT WEATHER SUCH AS PRECIPITATION OR FOG.

ILZ005-006-012>014-019>023-281300-
NORTHEAST ILLINOIS

CITY           SKY/WX    TMP DP  RH WIND       PRES   REMARKS
OHARE          PTSUNNY   75  68  78 E6        29.91R
6HR MIN TEMP:  71; 6HR MAX TEMP:  75;

MIDWAY         PTSUNNY   79  67  66 NE5       29.90S HX  81
6HR MIN TEMP:  75; 6HR MAX TEMP:  79;

AURORA         MOSUNNY   72  68  87 CALM      29.91R FOG
6HR MIN TEMP:  68; 6HR MAX TEMP:  72;

LANSING*       MOSUNNY   71  66  85 CALM      29.92R
JOLIET*        CLOUDY    74  72  92 CALM      29.91R
WAUKEGAN       MOSUNNY   71  69  93 N6        29.92R
6HR MIN TEMP:  66; 6HR MAX TEMP:  75;

DUPAGE AIRPORT MOSUNNY   72  67  84 E5        29.91R
6HR MIN TEMP:  68; 6HR MAX TEMP:  73;

WHEELING       PTSUNNY   72  69  90 CALM      29.92R
6HR MIN TEMP:  70; 6HR MAX TEMP:  73;

KANKAKEE*      CLOUDY    70  68  92 CALM      29.92S
MORRIS*        MOSUNNY   71  70  95 CALM      29.90R FOG
LEWIS AIRPORT* PTSUNNY   72  69  89 CALM      29.91R FOG
NORTHERLY ISL    N/A     75  70  84 N3          N/A
$$

WIZ051-052-058>065-066-070>072-281300-
SOUTHEAST WISCONSIN

CITY           SKY/WX    TMP DP  RH WIND       PRES   REMARKS
MILWAUKEE      PTSUNNY   70  68  93 N5        29.93R
6HR MIN TEMP:  68; 6HR MAX TEMP:  70; 6HR PCP:  0.03;

KENOSHA*       SUNNY     70  67  90 N5        29.93R
RACINE*        CLOUDY    69  67  93 N6        29.94S FOG
BURLINGTON     SUNNY     68  65  91 E3        29.93R
WAUKESHA       PTSUNNY   66  64  94 E9        29.95S
WEST BEND      CLOUDY    64  64 100 NE6       29.95S
$$

INZ001>003-010>013-019-020-281300-
NORTHWEST INDIANA

CITY           SKY/WX    TMP DP  RH WIND       PRES   REMARKS
GARY*          PTSUNNY   72  72 100 SE3       29.92R
MICHIGAN CITY* NOT AVBL
RENSSELAER*    NOT AVBL
VALPARAISO     PTSUNNY   69  67  93 NE3       29.93R
$$

LMZ740>746-281300-
SOUTHERN LAKE MICHIGAN

STATION/POSITION TIME  SKY/WX   TEMP WIND        PRES    VSBY
                                AIR  DIR/SP/G
                 (UTC)          (F)  (DEG/KT/KT) (MB)    (MI)
HARRISON CRIB    1100            76   40/  6/  6   N/A
BURNHAM HARBOR   1200            75  340/  2/  5   N/A
CALUMET HARBOR   1100            72  170/  1/  1 1012.1R
BURNS HARBOR     1102            72  190/  4/  6 1013.2S
MICHIGAN CITY    1100            71  120/  6/  7   N/A
$$

ABBREVIATIONS USED IN REMARKS
   TC - TEMPERATURE IN CELSIUS
  WCI - WIND CHILL INDEX
   HX - HEAT INDEX
  VSB - VISIBILITY
$$



USA.gov is the U.S. government's official web portal to all federal, state and local government web resources and services.